Location: Parkvale
(41.0500°S, 175.5500°E)
Time: 11:22:48
(UTC+00:00)

Daily predictions for brighter satellites

Satellite Brightness Start Highest point End
(mag) Time Altitude Azimuth Time Altitude Azimuth Time Altitude Azimuth
USA 59 Rocket 3.2 12:26:41 37° S 12:26:41 37° S 12:32:50 10° SSE
USA 59 Rocket 3.5 14:12:59 23° SW 14:15:19 25° SSW 14:23:24 10° SSE
Cosmos 1697 Rocket 4.3 14:56:36 32° SE 14:56:36 32° SE 14:59:43 10° SSE
SL-12 R/B(2) 4.3 15:01:05 10° SSW 15:09:35 65° SE 15:16:57 10° NE
USA 267 3.8 15:07:00 10° ESE 15:13:05 48° ENE 15:13:05 48° ENE
Cosmos 2366 rocket 4.2 15:30:03 62° S 15:30:03 62° S 15:35:08 10° S
BREEZE-M DEB (TANK) 4.0 15:39:39 36° SE 15:39:39 36° SE 15:43:34 10° ESE
Cosmos 2218 Rocket 4.1 15:50:05 61° SW 15:50:05 61° SW 15:55:27 10° S
H-2A R/B 3.7 15:54:13 22° SSW 15:54:13 22° SSW 15:56:03 10° SSW
Cosmos 2263 Rocket 3.2 15:47:30 10° SSW 15:52:53 44° ESE 15:58:12 10° NE
Cosmos 1727 Rocket 4.4 15:46:33 10° S 15:52:57 65° E 15:59:14 10° NNE
Cosmos 1980 Rocket 2.2 15:53:44 74° NNE 15:54:08 78° ENE 15:59:52 10° SSE
ATLAS 2AS CENTAUR R/B 3.5 15:55:24 24° N 15:59:08 46° ENE 16:05:47 10° SE
Cosmos 2227 Rocket 4.0 16:06:22 17° N 16:06:22 17° N 16:07:33 10° N
Meteor 2-13 Rocket 4.3 15:56:37 10° SSW 16:02:50 75° W 16:04:49 45° NNW
Cosmos-2242 4.2 16:01:12 10° S 16:05:15 41° ESE 16:09:14 10° NNE
USA 59 Rocket 3.9 16:02:26 10° SW 16:09:37 20° S 16:16:13 10° SE
BREEZE M DEB (TANK) 3.8 16:11:50 25° E 16:11:50 25° E 16:13:38 10° ESE
OAO 2 Rocket 4.0 16:11:28 43° N 16:11:29 43° N 16:16:30 10° ENE
H-2A R/B 4.2 16:12:57 10° NE 16:15:37 28° ESE 16:18:19 10° S
Cosmos 1626 Rocket 3.5 16:18:05 57° NNE 16:18:55 79° E 16:23:18 10° S
Alouette 2 Rocket 3.4 16:21:36 69° NNW 16:22:07 84° W 16:25:55 10° S
Cosmos 371 Rocket 3.1 16:18:24 10° SSW 16:23:21 81° WNW 16:28:13 10° NNE
SL-16 R/B 2.4 16:20:34 10° SSE 16:26:49 83° WSW 16:31:30 19° NNW
Cosmos 1821 Rocket 4.0 16:25:45 39° NW 16:27:54 57° WSW 16:34:12 10° S
Cosmos 304 Rocket 3.6 16:23:18 10° SSW 16:28:09 84° WNW 16:32:58 10° NNE
NOSS 3-1 (C) 3.7 16:24:16 10° SSW 16:30:40 60° SE 16:35:47 10° NE
CZ-2C R/B 4.4 16:27:14 10° SSW 16:29:37 17° SW 16:29:37 17° SW
DNEPR-1 R/B 3.5 16:31:17 56° NW 16:32:10 77° WSW 16:37:13 10° SSE
SL-08 R/B 4.3 16:26:39 11° N 16:32:35 79° W 16:38:49 10° S
Meteor 2-3 Rocket 3.7 16:29:38 13° N 16:34:50 84° W 16:40:39 10° S
Cosmos 1697 Rocket 3.9 16:38:20 24° SW 16:38:27 24° SW 16:43:01 10° S
Cosmos 1238 Rocket 2.8 16:35:00 10° SSW 16:39:00 72° W 16:43:38 10° N
BREEZE-M DEB (TANK) 3.8 16:37:38 37° WNW 16:39:54 78° SSW 17:00:35 10° ESE
Cosmos 2239 Rocket 4.4 16:34:29 13° NNW 16:39:58 67° W 16:46:15 10° S
Cosmos 1862 3.0 16:39:37 37° NNW 16:41:03 80° W 16:44:59 10° S
Cosmos 1666 2.2 16:42:04 68° NW 16:42:24 78° W 16:45:50 10° S
Cosmos 1500 3.1 16:43:01 51° SW 16:43:01 51° SW 16:45:54 10° S
CBERS-1 4.3 16:40:17 10° N 16:45:10 43° W 16:50:07 10° SSW
Cosmos 1758 Rocket 3.4 16:44:34 19° NNW 16:47:36 72° W 16:51:59 10° S
ARGOS 3.4 16:44:02 10° N 16:49:13 46° W 16:54:31 10° SSW
SL-08 RB Rocket 3.6 16:45:33 10° N 16:49:57 59° W 16:54:29 10° SSW
Cosmos 2219 3.3 16:45:42 10° SW 16:51:09 50° WNW 16:56:33 10° N
DMSP B5D2-2 4.1 16:48:40 10° SSE 16:53:58 81° ENE 16:59:11 10° N
Cosmos 2221 4.0 16:51:27 10° S 16:55:32 40° ESE 16:59:36 10° NNE
Cosmos 2322 Rocket 3.9 16:50:40 10° NNE 16:55:40 34° ENE 17:00:42 10° SE
Cosmos 1000 Rocket 4.5 16:49:45 10° SSW 16:55:51 58° W 17:01:52 10° N
USA 267 3.5 16:49:57 10° SE 16:56:21 54° SSW 17:00:27 23° W
Cosmos 1777 Rocket 4.3 16:52:03 10° SSW 16:57:21 71° ESE 17:02:35 10° NNE
NOAA 12 4.0 16:52:35 10° N 16:57:51 66° WNW 17:03:14 10° SSW
Cosmos 1605 Rocket 4.5 16:52:33 10° N 16:58:33 62° E 17:04:38 10° SSE
Cosmos 2082 3.7 16:56:59 10° SSW 17:02:34 60° WNW 17:08:04 10° N
GP-B 3.0 16:58:45 10° S 17:03:15 78° W 17:07:40 10° N
IRS-1C 4.1 16:58:44 10° N 17:04:03 69° WNW 17:09:28 10° SSW
SJ-12 3.8 17:04:52 10° NNE 17:08:50 87° ESE 17:12:53 10° SSW
Cosmos 1535 Rocket 4.5 17:04:31 10° N 17:10:40 90° W 17:16:54 10° S
Cosmos 2369 4.3 17:07:39 21° WNW 17:10:50 36° WSW 17:16:06 10° S
IRS-P3 4.1 17:10:22 10° N 17:15:42 71° WNW 17:21:07 10° SSW
Cosmos 1844 Rocket 3.9 17:11:43 10° SSW 17:17:05 44° ESE 17:22:23 10° NE
Cosmos 2333 Rocket 3.7 17:13:13 10° N 17:18:26 39° ENE 17:23:42 10° SE
SL-16 R/B 2.2 17:13:21 10° NNW 17:19:02 88° ENE 17:24:48 10° SSE
Meteor 2-19 Rocket 4.5 17:13:11 10° SSW 17:19:18 59° W 17:25:19 10° N
USA 281 3.4 17:12:56 10° SSE 17:19:19 53° WSW 17:25:41 10° NW
Cosmos 2278 3.7 17:13:56 10° NNW 17:19:37 76° WSW 17:25:23 10° SSE
Cosmos 540 Rocket 4.3 17:18:40 10° N 17:23:42 55° ENE 17:28:48 10° SSE
Iridium 82 4.5 17:22:02 10° NNW 17:25:31 57° W 17:28:57 10° S
Cosmos 1503 Rocket 4.1 17:21:09 10° SSW 17:26:17 56° WNW 17:31:19 10° N
Cosmos 1825 Rocket 3.5 17:22:43 10° NNW 17:27:03 71° W 17:31:27 10° S
USA 305 3.8 17:23:54 10° NNW 17:27:28 42° NE 17:31:14 10° ESE
Cosmos 1354 Rocket 4.0 17:22:12 10° SSW 17:27:30 75° WNW 17:32:44 10° N
USA 234 3.3 17:22:11 10° NE 17:28:47 90° SE 17:35:25 10° SW
Cosmos 1375 Rocket 4.5 17:22:41 10° NNW 17:28:59 88° WSW 17:35:21 10° SSE
Cosmos 2227 4.3 17:25:32 10° SSW 17:31:23 89° WNW 17:37:10 10° NNE
Genesis I 2.8 17:30:09 10° NW 17:33:37 74° SW 17:37:05 10° SSE
ARIANE 5 R/B 3.0 17:29:39 10° NNW 17:34:15 36° W 17:38:55 10° SSW
SJ-6F 4.4 17:30:32 10° N 17:34:39 68° WNW 17:38:50 10° SSW
Spot 4 Rocket 4.2 17:30:28 10° NNE 17:35:36 83° ESE 17:40:49 10° SSW
Cosmos 2263 Rocket 3.1 17:31:58 10° SW 17:36:28 25° WNW 17:40:58 10° NNW
Cosmos 1602 4.0 17:34:23 10° NNW 17:37:47 38° WSW 17:41:15 10° S
Cosmos 1980 Rocket 3.7 17:35:31 11° W 17:38:48 18° SW 17:42:36 10° S
ATLAS CENTAUR R/B 3.6 17:30:30 10° SW 17:39:06 65° SE 17:44:39 10° ENE
CZ-2D R/B 3.3 17:37:56 10° N 17:41:22 45° W 17:44:51 10° SSW
Meteor 2-6 Rocket 4.4 17:35:28 10° SSW 17:41:29 79° W 17:47:28 10° N
Cosmos 1763 Rocket 3.5 17:38:03 10° NNW 17:43:21 74° WSW 17:48:44 10° SSE
BlueWalker 3 4.2 17:41:02 10° SSW 17:43:42 18° SSE 17:46:21 10° ESE
H-2A R/B 4.1 17:45:52 10° WNW 17:46:57 11° W 17:48:03 10° WSW
NOSS 3-1 (A) 3.2 17:42:36 10° SW 17:48:54 80° WNW 17:53:59 10° NNE
Cosmos 332 Rocket 4.4 17:44:54 10° SW 17:49:18 34° WNW 17:53:37 10° NNW
ATLAS 2AS CENTAUR R/B 3.3 17:43:49 10° WNW 17:50:08 40° SW 17:56:47 10° SSE
PSLV R/B 3.5 17:47:43 10° N 17:51:58 72° WNW 17:56:19 10° SSW
OAO 2 Rocket 4.3 17:50:52 10° WNW 17:55:44 37° NNW 18:00:37 10° NE
